Location: Port-Aux-Quilles Astronomical Observatory
(47.9769°N, 69.9642°W)
Time: 09:13:51
(UTC-05:00)

OTV 5 (USA 277) - Pass Details

Date: 28 October 2019
Orbit: 310 x 324 km, 54.5° (Epoch: 17 October)

Event Time Altitude Azimuth Distance (km) Brightness Sun altitude
Rises 19:08:18 0° 209° (SSW) 2,050 ? -17.3°
Reaches altitude 10° 19:10:26 10° 195° (SSW) 1,226 ? -17.6°
Enters shadow 19:11:24 17° 179° (S) 922 ? -17.8°
